User: anonymous   Login
Location: *
(17.3280°S, 114.7300°W)
Time: 06:29:41
(UTC+00:00)
Language:

ASTRO E2 - Orbit

View from above orbital plane
View from above orbital plane
View from above satellite
View from above satellite

Ground track
Ground track

The orbit data is extracted from the following two-line orbital elements,

1 28773U 05025A   20295.23509208 +.00001255 +00000-0 +56342-4 0  9993
2 28773 031.3818 278.6885 0004348 033.2463 326.8457 15.17750271843081
Epoch (UTC): 21 October 2020 05:38:31
Eccentricity: 0.0004348
inclination: 31.3818°
perigee height: 509 km
apogee height: 515 km
right ascension of ascending node: 278.6885°
argument of perigee: 33.2463°
revolutions per day: 15.17750271
mean anomaly at epoch: 326.8457°
orbit number at epoch: 84308

The dashed part of the orbit path shows where the satellite is in the earth's shadow,  

DLR